STARLINK-1153 (45080 NORAD) Tracking and Keplerian Element Data

This shows tracking and keplerian element data for the satellite.

Feedback or suggestion? Click here.




ElementValue
Catalog45080
NameSTARLINK-1153
Epoch Orbit177
Epoch Day47.91667824
Epoch Year2020
RAAN144.3342
Inclination52.9964
Eccentricity0.0001279
Argument of Perigee39.8942
Mean Anonmoly232.9349
Mean Motion15.73173608
Decay Rate0.00323135
L11 45080U 20006AN 20047.91667824 .00323135 00000-0 22213-2 0 9990
L22 45080 52.9964 144.3342 0001279 39.8942 232.9349 15.73173608 1777

Live tracking and technical data element details for STARLINK-1153 (NORAD 45080). STARLINK-1153 can be tracked NOW for your location showing map with azimuth and elevation plus other details from your city location.

Track the satellite on the map from your city or location and see movement details for azimuth, elevation, latitude, longitude, range, height, and movement on the map or in text.







IsCatalogInMostPopularTable: catalog: 45080, numindb: 1
Update: records affected: 1



GetName: 45080 STARLINK-1153

Hit Count: updated at: Tue, 18 Feb 2020 00:10:15 GMT